Regional Weather Roundup
Issued by NWS

Home | Current Version | Previous Version | Graphics & Text | Print | Product List | Glossary Off
Versions: 1 2 3 4 5 6 7 8 9 10 11 12 13 14 15 16 17 18 19 20 21 22 23 24 25 26 27 28 29 30 31 32 33 34 35 36 37 38 39 40 41 42 43 44 45 46 47 48 49 50

000
ASUS43 KFSD 182310
RWRSD

WEATHER ROUNDUP FOR SOUTH DAKOTA
NATIONAL WEATHER SERVICE SIOUX FALLS SD
500 PM CST SAT FEB 18 2017

NOTE: "FAIR" INDICATES FEW OR NO CLOUDS BELOW 12,000 FEET WITH NO
SIGNIFICANT WEATHER AND/OR OBSTRUCTIONS TO VISIBILITY.


SDZ001>005-009-010-012>017-190000-
NORTHWEST AND NORTH CENTRAL SOUTH DAKOTA

CITY           SKY/WX    TMP DP  RH WIND       PRES   REMARKS
BUFFALO          N/A     57  34  41 W12       29.53R
FAITH            N/A     58  34  40 S10       29.57S
MOBRIDGE       SUNNY     45  32  60 SE17      29.61F
$$

SDZ012>016-024>037-041>051-057-063-072>074-190000-
SOUTHWEST AND SOUTH CENTRAL SOUTH DAKOTA

CITY           SKY/WX    TMP DP  RH WIND       PRES   REMARKS
RAPID CTY ARPT SUNNY     67  30  25 W12       29.57F
PIERRE         CLOUDY    60  34  37 SE14      29.64S
CUSTER         SUNNY     56  26  31 W13G24    29.65S
ELLSWORTH AFB  SUNNY     67  30  25 W7        29.57F
PHILIP         SUNNY     65  32  29 S20G25    29.60S
PINE RIDGE     SUNNY     57  31  37 S13       29.63F
SPEARFISH      FAIR      63  30  29 SW17G26   29.59R
WINNER         FAIR      63  30  28 S15       29.69S
$$

SDZ004>011-016>023-039-040-190000-
NORTHEAST SOUTH DAKOTA

CITY           SKY/WX    TMP DP  RH WIND       PRES   REMARKS
ABERDEEN       CLOUDY    48  40  73 SE5       29.74S
WATERTOWN      CLOUDY    48  41  76 SE3       29.76R
BROOKINGS      PTCLDY    55  37  50 S8        29.76S
SISSETON         N/A     50  41  71 CALM      29.77R
$$

SDZ017-020-022-023-036>040-048>070-190000-
SOUTHEAST SOUTH DAKOTA

CITY           SKY/WX    TMP DP  RH WIND       PRES   REMARKS
SIOUX FALLS    PTCLDY    57  44  62 S7        29.78R
HURON          SUNNY     57  39  51 SE7       29.73S
CHAMBERLAIN    SUNNY     60  39  46 SE12      29.71S
MITCHELL       SUNNY     57  39  51 S12       29.75R
YANKTON        SUNNY     61  36  39 SE9       29.75S
$$

ABBREVIATIONS USED IN REMARKS
   TC - TEMPERATURE IN CELSIUS
  WCI - WIND CHILL INDEX
   HX - HEAT INDEX
  VSB - VISIBILITY





USA.gov is the U.S. government's official web portal to all federal, state and local government web resources and services.